Flag for Vietnam Weather past 2 weeks in Hanoi, Vietnam

Now
88 °F

Broken clouds.


Feels Like: 100 °F
Forecast: 76 / 87 °F
Wind: 3 mph from North

Location: Ha Noi Airport

Current Time: Aug 29, 2015 at 4:44:22 PM

Latest Report: Aug 29, 2015 at 4:00 PM


Visibility: N/A

Pressure: 29.59 "Hg

Humidity: 70%

Dew point: 77 °F

Location of HanoiLocation

Historic Weather in Hanoi — Graph

°F

Hanoi temperature yesterday

Maximum temperature yesterday: 90 °F (at 11:30 AM)
Minimum temperature yesterday: 81 °F (at 11:00 PM)
Average temperature yesterday: 85 °F

Past Weeks' High & Low Weather Summary

 TemperatureHumidityPressure
High100 °F (Aug 17, 3:30 PM)100% (Aug 19, 11:00 PM)29.83 "Hg (Aug 19, 11:00 PM)
Low77 °F (Aug 19, 10:30 PM)39% (Aug 17, 4:30 PM)29.50 "Hg (Aug 23, 5:00 PM)
Average88 °F70%29.66 "Hg
* Reported Aug 14 2:00 PM — Aug 29 2:30 PM, Hanoi, Weather by CustomWeather, © 2015

Note: Actual official high and low records may vary slightly from our data, if they occured in-between our weather recording intervals... More about our weather records

Advertising

Hanoi weather history for previous 24 hours

 ConditionsComfort  
Time TempWeatherWind HumidityBarometerVisibility
2:30 PM
Sat, Aug 29
86 °FBroken clouds.5 mph70%29.62 "HgN/A
2:00 PM86 °FBroken clouds.3 mph75%29.62 "HgN/A
1:00 PM86 °FBroken clouds.3 mph75%29.65 "HgN/A
12:30 PM84 °FBroken clouds.3 mph79%29.65 "Hg5 mi
12:00 PM84 °FLight rain. Broken clouds.3 mph79%29.68 "Hg5 mi
11:30 AM84 °FBroken clouds.2 mph79%29.68 "Hg5 mi
11:00 AM84 °FBroken clouds.5 mph79%29.68 "Hg5 mi
10:30 AM82 °FLight rain. Broken clouds.5 mph84%29.68 "Hg4 mi
10:00 AM82 °FBroken clouds.5 mph84%29.68 "Hg5 mi
9:00 AM82 °FBroken clouds.5 mph89%29.68 "Hg3 mi
8:30 AM82 °FBroken clouds.5 mph84%29.65 "Hg3 mi
8:00 AM81 °FFog.3 mph94%29.65 "Hg2 mi
7:30 AM81 °FLight rain. Fog.5 mph94%29.65 "Hg2 mi
7:00 AM81 °FFog.3 mph89%29.65 "Hg3 mi
6:30 AM81 °FBroken clouds.3 mph89%29.62 "Hg3 mi
6:00 AM79 °FBroken clouds.5 mph94%29.62 "Hg3 mi
5:30 AM79 °FPartly cloudy.3 mph94%29.62 "Hg4 mi
5:00 AM79 °FPartly cloudy.6 mph94%29.62 "Hg4 mi
4:30 AM81 °FPassing clouds.5 mph94%29.59 "Hg4 mi
4:00 AM81 °FPassing clouds.3 mph89%29.62 "Hg4 mi
3:30 AM81 °FPartly cloudy.3 mph89%29.62 "Hg4 mi
3:00 AM81 °FPartly cloudy.3 mph89%29.62 "HgN/A
2:30 AM81 °FLight rain. Partly cloudy.5 mph89%29.62 "Hg4 mi
2:00 AM81 °FPartly cloudy.3 mph89%29.62 "Hg4 mi
1:30 AM81 °FPassing clouds.6 mph94%29.62 "Hg5 mi
1:00 AM81 °FLight rain. Passing clouds.7 mph89%29.65 "Hg5 mi
12:30 AM81 °FThunderstorms. Passing clouds.1 mph94%29.65 "HgN/A
12:00 AM81 °FThunderstorms. Partly cloudy.2 mph89%29.65 "HgN/A
11:30 PM
Fri, Aug 28
81 °FLight rain. Partly cloudy.5 mph89%29.65 "HgN/A
11:00 PM81 °FLight rain. Passing clouds.2 mph94%29.68 "HgN/A
10:30 PM82 °FLight rain. Partly cloudy.2 mph84%29.68 "HgN/A
10:00 PM82 °FPassing clouds.2 mph84%29.68 "HgN/A
9:30 PM82 °FThunderstorms. Partly cloudy.5 mph84%29.68 "HgN/A
9:00 PM82 °FThunderstorms. Partly cloudy.5 mph84%29.68 "HgN/A
8:30 PM82 °FThunderstorms. Partly cloudy.6 mph89%29.65 "HgN/A
8:00 PM82 °FThunderstorms. Partly cloudy.8 mph84%29.65 "HgN/A
7:30 PM84 °FThunderstorms. Partly cloudy.8 mph79%29.65 "HgN/A
7:00 PM84 °FPartly cloudy.10 mph79%29.62 "HgN/A
6:30 PM86 °FPartly cloudy.8 mph75%29.62 "HgN/A
6:00 PM86 °FBroken clouds.6 mph75%29.59 "HgN/A
5:30 PM90 °FPartly sunny.7 mph67%29.59 "HgN/A
5:00 PM90 °FPartly sunny.5 mph59%29.56 "HgN/A
4:30 PM90 °FPartly sunny.2 mph59%29.59 "HgN/A
4:00 PM90 °FPartly sunny.5 mph67%29.59 "HgN/A
Weather by CustomWeather, © 2015

See weather overviewHow to use our weather pages